sat.trackr.live / text

‹ back to catalog

KUIPER-00265

NORAD 67159 · 2025-301AC

PAYLOAD ACTIVE UNKNOWN

§ Identity

Operator
Country
US
Launch date
2025-12-16
Launch site
AFETR
Launch vehicle
Mass (kg)
RCS (m²)

External: N2YO · Heavens-Above · Gunter

§ Orbital elements

Epoch: 2026-09-20T10:15:14.838912Z

Period
97.30 min
Inclination
51.9068°
Eccentricity
0.0000543
Mean motion
14.79931072 rev/d
Perigee alt
629.2 km
Apogee alt
629.9 km
Semi-major
7,007.7 km
B*
2.5856e-4
RAAN
304.5315°
Arg perigee
51.9756°
Mean anomaly
308.1255°
Rev number
4,232

§ Raw data

KUIPER-002651 67159U 25301AC  26263.42725508  .00001750  00000+0  25856-3 0  99922 67159  51.9068 304.5315 0000543  51.9756 308.1255 14.79931072 42323

JSON: /api/v1/satellites/67159 · /tle

For live sub-satellite position, see the globe view (requires WebGL).

§ Visibility from observer

Set your observer location to see the next 7 days of passes ≥ 10°. The values pass through the URL so the page stays shareable.

No JS? Fill the form by hand. The geolocation button needs JavaScript.